Location: Newark
(49.9819°N, 3.0344°E)
Time: 02:34:31
(UTC+00:00)

ISS - Pass Details

Date: 26 January 2020
Orbit: 415 x 422 km, 51.6° (Epoch: 27 February)

Event Time Altitude Azimuth Distance (km) Brightness Sun altitude
Rises 18:56:13 0° 265° (W) 2,378 1.6 -23.1°
Reaches altitude 10° 18:58:19 10° 268° (W) 1,512 0.2 -23.4°
Enters shadow 19:00:45 42° 285° (WNW) 614 -2.6 -23.8°
